Other Public Products
Issued by NWS Grand Forks, ND

Home | Current Version | Previous Version | Text Only | Print | Product List | Glossary On
Versions: 1 2 3 4 5 6 7 8 9 10 11 12 13 14 15 16 17 18 19 20 21 22 23 24 25 26 27 28 29 30 31 32 33 34 35 36 37 38 39 40 41 42 43 44 45 46 47 48 49 50
000
FPUS83 KFGF 262031
OPUFGF
PRAIRIE TO PINES WEATHER ROUNDUP
NATIONAL WEATHER SERVICE EASTERN NORTH DAKOTA/GRAND FORKS ND
300 PM CDT WED APR 26 2017

 **SATELLITE DATA USED TO AUGMENT SKY COVER AT AUTOMATED STATIONS**
 *****  WEATHER ACROSS EASTERN NORTH DAKOTA  *****

CITY           SKY/WX    TMP DP  RH WIND       PRES   REMARKS
GRAND FORKS    LGT SNOW  31  28  89 N18       29.78S VSB 1   WCI  19
GRAND FORKS AF LGT SNOW  28  27  93 NE20      29.79S FOG     WCI  15
GRAND CITY NWS NOT AVBL
BUXTON           N/A     29  28  97 N20         N/A  WCI  16
DEVILS LAKE    CLOUDY    34  26  72 NE21G28   29.80S WCI  22
FARGO          SNOW      29  27  92 N18       29.74S VSB 1/2 WCI  16
WAHPETON ARPT  CLOUDY    30  27  86 N17G23    29.72S WCI  18
$$

 *****  WEATHER ACROSS CENTRAL AND WESTERN NORTH DAKOTA  *****

CITY           SKY/WX    TMP DP  RH WIND       PRES   REMARKS
JAMESTOWN      CLOUDY    30  25  81 N15       29.76S WCI  19
BISMARCK       CLOUDY    44  27  51 N12       29.78F
MINOT          FAIR      48  23  37 N18G24    29.80F
MINOT AFB      FAIR      46  21  37 NE17      29.80F
GARRISON         N/A     43  22  43 NE13G24   29.78F
WILLISTON      FAIR      49  23  36 MISG      29.82F
DICKINSON      FAIR      45  21  38 N12G21    29.76F
HETTINGER      FAIR      45  24  43 NW9G16    29.77F
$$

 *****  OTHER OBSERVATIONS NORTHEAST NORTH DAKOTA  *****

CITY           SKY/WX    TMP DP  RH WIND       PRES   REMARKS
WALHALLA       NOT AVBL
LANGDON        CLOUDY    37  27  65 NE28G33   29.79S
CAVALIER         N/A     36  25  64 NE15G22   29.81F
GRAFTON        LGT SNOW  32  27  80 NE15G23   29.82S WCI  22
CANDO          NOT AVBL
FORT TOTTEN      N/A     34  26  73 NE8       29.95S
ROLLA          FAIR      41  28  60 NE22G33   29.79F
RUGBY          NOT AVBL
 ***** THE ABOVE OBSERVATIONS ARE NON NWS ARE NOT QUALITY
        CONTROLLED AND MAY MIS-REPORT RAIN FOR SNOW...
$$

 *****  OTHER OBSERVATIONS SOUTHEAST NORTH DAKOTA *****

CITY           SKY/WX    TMP DP  RH WIND       PRES   REMARKS
COOPERSTOWN    DRIZZLE   30  27  86 N21       29.77S WCI  17
VALLEY CITY    LGT SNOW  28  28 100 N17       29.77R WCI  16
OAKES          NOT AVBL
GWINNER        CLOUDY    30  27  86 MISG      29.75R
SHEYENNE NWR     N/A     29  25  84 N14       29.95S WCI  18
BUFFALO          N/A     28  25  86 S14G28      N/A  WCI  17
WYNDMERE         N/A     30  27  86 VRB15       N/A  WCI  19
 ***** THE ABOVE OBSERVATIONS ARE NON NWS ARE NOT QUALITY
       CONTROLLED AND MAY MIS-REPORT RAIN FOR SNOW...
$$

  *****  WEATHER ACROSS NORTHERN MINNESOTA  *****

CITY           SKY/WX    TMP DP  RH WIND       PRES   REMARKS
FLAG ISLAND    CLOUDY    30  21  69 NE26G32   29.78F WCI  16
WARROAD        CLOUDY    30  25  80 NE18G30   29.78F WCI  18
ROSEAU         CLOUDY    32  25  74 NE20      29.78S WCI  20
HALLOCK        CLOUDY    34  25  69 NE14      29.80F WCI  24
THF RVR FALLS  FLURRIES  28  25  86 NE21      29.74F WCI  15
HALSTAD          N/A     29  25  86 N18         N/A  WCI  16
FOSSTON        CLOUDY    27  25  93 N14G24    29.71R WCI  15
BAUDETTE       LGT SNOW  29  23  78 NE15      29.73S WCI  18
WASKISH        CLOUDY    28  25  86 NE14      29.70S HAZE    WCI  17
CROOKSTON      LGT SNOW  28  27  93 N14       29.77S WCI  17
$$
  *****  WEATHER ACROSS CENTRAL AND WEST MINNESOTA  *****

CITY           SKY/WX    TMP DP  RH WIND       PRES   REMARKS
BEMIDJI        CLOUDY    28  24  87 N12       29.66S FOG     WCI  18
PARK RAPIDS    LGT SNOW  29  22  75 N9        29.64R WCI  20
WADENA         MIX PCPN  28  27  93 N7        29.64S WCI  21
DETROIT LAKES  CLOUDY    30  28  93 N9        29.69R WCI  22
MOORHEAD       RAIN      28  27  93 N8        29.74R WCI  20
FERGUS FALLS   CLOUDY    30  27  86 N12       29.69R WCI  21
ELBOW LAKE     CLOUDY    32  28  86 N13       29.67S WCI  22
MORRIS MN      CLOUDY    34  28  80 NW20      29.65F WCI  22
STAPLES        CLOUDY    28  28 100 CALM      29.63S FOG
WHEATON        CLOUDY    30  27  86 NW16G24   29.72S WCI  19
$$
  *****  WEATHER ELSEWHERE ACROSS MINNESOTA  *****

CITY           SKY/WX    TMP DP  RH WIND       PRES   REMARKS
DULUTH         LGT SNOW  33  30  88 N13       29.56R VSB 3/4 WCI  24
INTRNTL FALLS  LGT SNOW  27  21  78 NE16G28   29.70F VSB 3/4 WCI  15
ELY            LGT SNOW  27  23  86 NE10G21   29.62R WCI  17
CLOQUET        LGT SNOW  34  30  86 N8        29.56F
BRAINERD       CLOUDY    31  28  89 N12       29.63R WCI  22
HIBBING        CLOUDY    29  25  85 NE12G17   29.61R WCI  19
ALEXANDRIA     CLOUDY    31  27  85 N14       29.64F WCI  21
SAINT CLOUD    CLOUDY    35  32  88 NW13      29.60R
MINNEAPOLIS    CLOUDY    40  33  76 NW13      29.55R
$$

  *****  WEATHER ACROSS SOUTH DAKOTA  *****

CITY           SKY/WX    TMP DP  RH WIND       PRES   REMARKS
SIOUX FALLS    CLOUDY    37  30  75 N18G24    29.68F
BROOKINGS      CLOUDY    32  27  81 N14       29.68R WCI  22
WATERTOWN      CLOUDY    29  25  85 N20       29.68R WCI  16
HURON          CLOUDY    37  27  67 N23G29    29.74R
SISSETON         N/A     30  28  92 N20       29.71R WCI  17
ABERDEEN       LGT SNOW  31  26  82 N20       29.76R VSB 3/4 WCI  19
MITCHELL       CLOUDY    37  29  72 NW21      29.75S
PIERRE         PTSUNNY   45  27  49 N17       29.73F
MOBRIDGE       PTSUNNY   44  25  47 N14       29.74F
RAPID CITY     CLOUDY    36  28  73 N9        29.78F
$$

  *****  SOME WEATHER IN NEARBY STATES *****

CITY           SKY/WX    TMP DP  RH WIND       PRES   REMARKS
GLASGOW MT     FAIR      46  25  43 S15G23    29.78F
GREAT FALLS MT CLOUDY    49  34  56 S7        29.62F
CHEYENNE WY    FAIR      50  18  28 NW16G26   29.71F
SCOTTSBLUFF NE FAIR      56  32  40 VRB6      29.70F
OMAHA NE       CLOUDY    43  33  68 N18G28    29.66R
DES MOINES IA  CLOUDY    49  38  65 NW15      29.59R
DAVENPORT IA   CLOUDY    51  47  86 SW15      29.56R
CHICAGO IL     CLOUDY    73  57  57 SW15G22   29.48R
EAU CLAIRE WI  CLOUDY    41  38  89 NW13      29.47R
LA CROSSE WI   CLOUDY    49  44  83 W10       29.48R
$$

  *****  SOME NATIONAL WEATHER *****

CITY           SKY/WX    TMP DP  RH WIND       PRES   REMARKS
LA GUARDIA NY  CLOUDY    59  56  89 NE6       29.76S FOG
RALEIGH NC     FAIR      80  63  55 SW14      29.79F
ATLANTA GA     FAIR      79  57  46 S16       29.79F
NEW ORLEANS LA PTSUNNY   80  69  69 SE18      29.68F
OKLAHOMA CITY  PTSUNNY   53  41  63 NW21G26   29.70S
ALBUQUERQUE NM FAIR      62  21  20 W14       29.88F
SALT LAKE CITY PTSUNNY   56  34  43 SE5       29.82F
LOS ANGELES CA PTSUNNY   70  52  52 SW14      29.88F
BOISE ID       LGT RAIN  48  44  86 W8        29.79F FOG
SEATTLE WA     FAIR      56  44  64 SW15G24   29.82F
$$

*** WEATHER ACROSS MANITOBA...SASKATCHEWAN AND ONTARIO ***
                ***ONTARIO***

CITY           SKY/WX    TMP DP  RH WIND       PRES   REMARKS
GERALDTON      SLEET     16  10  79 NE21G35   29.80F VSB 3/4 WCI  -2
THUNDER BAY    FRZ RAIN  25  21  86 NE10G17   29.63F WCI  15
SIOUX LOOKOUT  LGT SNOW  25  19  80 NE8G22    29.84F BLWGSNOWWCI  16
TORONTO        PTSUNNY   61  52  72 SE5       29.71F
BIG TROUT LK   SUNNY     30   3  31 NE7G17    30.19F WCI  23
PICKLE LAKE    CLOUDY    23   1  39 NE18G29   30.00F WCI   9
DRYDEN         LGT SNOW  25  21  86 NE23G35   29.79F WCI  10
KENORA         CLOUDY    30  18  59 NE20G30   29.81F WCI  18
$$
                *** MANITOBA***

CITY           SKY/WX    TMP DP  RH WIND       PRES   REMARKS
BRANDON        PTSUNNY   43  21  42 NE18G30   29.87F
DAUPHIN        SUNNY     43  16  33 NE13G20   29.97F
ISLAND LAKE    MOSUNNY   37   7  28 E7        30.12
PILOT MOUND      N/A     41  25  52 NE22G30     N/A
THE PAS        MOSUNNY   37  10  32 SE5       30.06F
THOMPSON       SUNNY     36   3  25 S5        30.14F
WINNIPEG       CLOUDY    39  23  52 N25G33    29.86F
LYNN LAKE      SUNNY     36   1  23 S10       30.07F
CHURCHILL      MOSUNNY   32  14  47 SW14      30.16F WCI  22
GILLAM         SUNNY     34   9  35 N9        30.21F
$$
                ***SASKATCHEWAN***

CITY           SKY/WX    TMP DP  RH WIND       PRES   REMARKS
ESTEVAN        MOSUNNY   45  19  36 E9G17     29.85F
KINDERSLEY     LGT RAIN  37  36  93 SE18      29.75F
LLOYDMINSTER   LGT SNOW  32  32 100 E16       29.80F WCI  21
PRINCE ALBERT  CLOUDY    41  16  36 SE10G18   29.95F
REGINA         MOSUNNY   43  18  36 SE14      29.87F
YORKTON        SUNNY     45  14  29 E13       29.92F



USA.gov is the U.S. government's official web portal to all federal, state and local government web resources and services.